Weather History for KTOL - December, 2013

Change the Weather History Date:

Monday, December 16, 2013

  Actual Average Record
Temperature  
Mean Temperature 10 °F 29 °F  
Max Temperature 21 °F 36 °F 62 °F (1984)
Min Temperature -1 °F 23 °F -10 °F (1951)
Degree Days  
Heating Degree Days 55 36  
Month to date heating degree days 623 530  
Since 1 July heating degree days 1971 1763  
Cooling Degree Days 0 0  
Month to date cooling degree days 0 0  
Year to date cooling degree days 793 793  
Moisture  
Dew Point 8 °F    
Average Humidity 76    
Maximum Humidity 95    
Minimum Humidity 56    
Precipitation  
Precipitation 0.08 in 0.08 in - ()
Month to date precipitation 0.71 1.41  
Year to date precipitation 34.47 32.97  
Snow  
Snow 0.80 in 0.30 in - ()
Month to date snowfall 8.8 3.3  
Since 1 July snowfall 9.3 5.4  
Snow Depth 6.00 in    
Sea Level Pressure  
Sea Level Pressure 30.11 in    
Wind  
Wind Speed 4 mph (SE)    
Max Wind Speed 16 mph    
Max Gust Speed 21 mph    
Visibility 8 miles    
Events Snow    
T = Trace of Precipitation, MM = Missing Value Source: NWS Daily Summary

Daily Weather History Graph

Daily Weather History Graph

Search for Another Location

Airport or City:

Trip Planner

Search our weather history database for the weather conditions in past years. The results will help you decide how hot, cold, wet, or windy it might be!

Date:

Astronomy

Dec. 16, 2013 Rise Set
Actual Time 7:55 AM EST 5:06 PM EST
Civil Twilight 7:24 AM EST 5:37 PM EST
Nautical Twilight 6:49 AM EST 6:12 PM EST
Astronomical Twilight 6:15 AM EST 6:46 PM EST
Moon 4:56 PM EST (12/16) 7:02 AM EST (12/16)
Length of Visible Light 10h 13m
Length of Day
9h 10m
Full, 100% of the Moon is Illuminated
Dec 16
Full
Dec 17
Full
Dec 25
Last Quarter
Jan 1
New
Jan 7
First Quarter

Hourly Weather History & Observations

Time (EST) Temp. Windchill Dew Point Humidity Pressure Visibility Wind Dir Wind Speed Gust Speed Precip Events Conditions
12:52 AM 10.9 °F -4.1 °F 6.1 °F 81% 30.09 in 10.0 mi WSW 12.7 mph - N/A   Partly Cloudy
1:52 AM 9.0 °F -6.6 °F 3.9 °F 80% 30.11 in 10.0 mi WSW 12.7 mph - N/A   Clear
2:52 AM 8.1 °F -6.2 °F 3.9 °F 83% 30.12 in 10.0 mi WSW 10.4 mph - N/A   Clear
3:52 AM 8.1 °F -6.2 °F 3.9 °F 83% 30.14 in 10.0 mi WSW 10.4 mph - N/A   Clear
4:52 AM 6.1 °F -5.6 °F 3.0 °F 87% 30.14 in 10.0 mi WSW 6.9 mph - N/A   Clear
5:52 AM 5.0 °F -2.1 °F 1.9 °F 87% 30.15 in 10.0 mi West 3.5 mph - N/A   Clear
6:52 AM 6.1 °F -0.9 °F 3.0 °F 87% 30.16 in 10.0 mi West 3.5 mph - N/A   Clear
7:52 AM 1.0 °F -6.7 °F -0.9 °F 91% 30.17 in 10.0 mi South 3.5 mph - N/A   Clear
8:52 AM 1.0 °F - -0.0 °F 95% 30.20 in 10.0 mi Calm Calm - N/A   Clear
9:52 AM 10.9 °F - 6.1 °F 81% 30.20 in 10.0 mi Calm Calm - N/A   Clear
10:52 AM 15.1 °F - 8.1 °F 74% 30.22 in 10.0 mi Calm Calm - N/A   Clear
11:52 AM 18.0 °F - 9.0 °F 68% 30.19 in 10.0 mi Calm Calm - N/A   Clear
12:52 PM 19.0 °F 13.9 °F 8.1 °F 62% 30.16 in 10.0 mi ENE 3.5 mph - N/A   Partly Cloudy
1:52 PM 19.0 °F 12.3 °F 7.0 °F 59% 30.14 in 10.0 mi ESE 4.6 mph - N/A   Scattered Clouds
2:52 PM 19.0 °F 11.1 °F 7.0 °F 59% 30.13 in 10.0 mi SE 5.8 mph - N/A   Overcast
3:52 PM 17.1 °F 8.7 °F 8.1 °F 68% 30.13 in 10.0 mi ESE 5.8 mph - N/A   Mostly Cloudy
4:52 PM 16.0 °F - 8.1 °F 71% 30.12 in 10.0 mi Calm Calm - N/A   Mostly Cloudy
5:52 PM 15.1 °F - 8.1 °F 74% 30.12 in 10.0 mi Calm Calm - N/A   Clear
6:43 PM 14.0 °F 8.2 °F 8.6 °F 79% 30.08 in 10.0 mi East 3.5 mph - N/A   Mostly Cloudy
6:52 PM 15.1 °F 9.4 °F 8.1 °F 74% 30.13 in 10.0 mi East 3.5 mph - N/A   Overcast
7:52 PM 16.0 °F 8.8 °F 9.0 °F 74% 30.12 in 10.0 mi ESE 4.6 mph - N/A   Overcast
8:11 PM 15.8 °F 7.2 °F 10.4 °F 79% 30.06 in 2.0 mi ESE 5.8 mph - 0.00 in Snow Light Snow
8:29 PM 15.8 °F 6.1 °F 12.2 °F 86% 30.06 in 1.0 mi East 6.9 mph - 0.01 in Snow Light Snow
8:52 PM 16.0 °F 7.4 °F 12.9 °F 88% 30.09 in 1.0 mi East 5.8 mph - 0.03 in Snow Light Snow
9:13 PM 15.8 °F 8.6 °F 12.2 °F 86% 30.03 in 0.5 mi East 4.6 mph - 0.01 in Snow Light Snow
9:43 PM 15.8 °F 8.6 °F 14.0 °F 93% 30.02 in 2.5 mi ESE 4.6 mph - 0.02 in Snow Light Snow
9:52 PM 16.0 °F 8.8 °F 14.0 °F 92% 30.06 in 1.0 mi East 4.6 mph - 0.02 in Snow Light Snow
10:20 PM 17.6 °F 12.3 °F 15.8 °F 93% 30.00 in 1.0 mi East 3.5 mph - 0.02 in Snow Light Snow
10:30 PM 17.6 °F 12.3 °F 15.8 °F 93% 30.00 in 1.0 mi East 3.5 mph - 0.03 in Snow Light Snow
10:42 PM 17.6 °F - 15.8 °F 93% 30.00 in 5.0 mi Calm Calm - 0.03 in Snow Light Snow
10:52 PM 17.1 °F 11.7 °F 15.1 °F 92% 30.03 in 9.0 mi East 3.5 mph - 0.03 in Snow Light Snow
11:52 PM 18.0 °F - 15.1 °F 88% 30.01 in 10.0 mi Calm Calm - 0.00 in   Overcast